GW0756 Weather Reports


time (UTC)temp
C
wind
direction
speed
KPH
gust
KPH
rain 1hr
cm
rain 24hr
cm
rain mn
cm
humidity
%
barometer
mb
20260906175254 38 122 1.6 3.2 0.00 0.00 0.00 38 1016.2
20260906174752 38 95 0.0 1.6 0.00 0.00 0.00 41 1016.5
20260906174252 38 131 0.0 1.6 0.00 0.00 0.00 39 1016.2
20260906173747 38 120 1.6 3.2 0.00 0.00 0.00 39 1016.7
20260906173243 38 60 1.6 1.6 0.00 0.00 0.00 39 1016.5
20260906172742 38 109 0.0 0.0 0.00 0.00 0.00 38 1016.5
20260906172237 38 102 1.6 1.6 0.00 0.00 0.00 38 1016.7
20260906171732 38 80 1.6 1.6 0.00 0.00 0.00 38 1016.7
20260906171228 37 98 0.0 1.6 0.00 0.00 0.00 42 1016.8
20260906170724 37 101 1.6 1.6 0.00 0.00 0.00 42 1017.0
20260906170219 37 122 0.0 0.0 0.00 0.00 0.00 40 1016.9
20260906165715 37 131 1.6 1.6 0.00 0.00 0.00 41 1017.0
20260906165210 38 123 6.4 9.7 0.00 0.00 0.00 39 1017.0
20260906164709 38 92 1.6 1.6 0.00 0.00 0.00 40 1017.0
20260906164204 38 154 1.6 1.6 0.00 0.00 0.00 39 1017.1
20260906163700 37 103 0.0 0.0 0.00 0.00 0.00 42 1017.0
20260906163156 36 118 1.6 1.6 0.00 0.00 0.00 45 1017.2
20260906162653 37 142 1.6 4.8 0.00 0.00 0.00 43 1017.3
20260906162152 36 113 4.8 4.8 0.00 0.00 0.00 45 1017.2
20260906161647 36 123 0.0 0.0 0.00 0.00 0.00 46 1017.1
20260906161146 36 48 0.0 1.6 0.00 0.00 0.00 47 1017.1
20260906160646 35 117 0.0 0.0 0.00 0.00 0.00 46 1017.3
20260906160144 35 85 0.0 1.6 0.00 0.00 0.00 48 1017.1
20260906155642 35 86 0.0 0.0 0.00 0.00 0.00 47 1016.8
20260906155138 35 93 1.6 1.6 0.00 0.00 0.00 49 1017.2
20260906154632 34 83 1.6 1.6 0.00 0.00 0.00 50 1017.0
20260906154127 33 90 0.0 0.0 0.00 0.00 0.00 52 1017.2
20260906153626 33 50 0.0 1.6 0.00 0.00 0.00 52 1017.1
20260906153121 33 98 0.0 0.0 0.00 0.00 0.00 52 1017.0
20260906152621 32 122 0.0 1.6 0.00 0.00 0.00 55 1017.0
20260906152115 32 122 1.6 1.6 0.00 0.00 0.00 55 1017.3
20260906151610 32 126 1.6 1.6 0.00 0.00 0.00 56 1017.0
20260906151106 32 119 0.0 0.0 0.00 0.00 0.00 58 1017.1
20260906150601 32 74 1.6 3.2 0.00 0.00 0.00 56 1017.2
20260906150056 32 90 1.6 1.6 0.00 0.00 0.00 58 1017.1
20260906145555 31 106 0.0 0.0 0.00 0.00 0.00 59 1017.0
20260906145050 31 84 0.0 0.0 0.00 0.00 0.00 60 1017.0
20260906144544 30 105 0.0 0.0 0.00 0.00 0.00 61 1017.1
20260906144040 30 116 0.0 0.0 0.00 0.00 0.00 63 1016.9
20260906143534 30 115 0.0 0.0 0.00 0.00 0.00 63 1016.9
20260906143031 30 36 0.0 1.6 0.00 0.00 0.00 63 1017.1
20260906142525 30 95 0.0 0.0 0.00 0.00 0.00 64 1016.9
20260906142021 30 81 1.6 1.6 0.00 0.00 0.00 64 1016.9
20260906141519 29 107 0.0 0.0 0.00 0.00 0.00 66 1016.9
20260906141009 29 64 1.6 1.6 0.00 0.00 0.00 67 1017.0
20260906140503 28 95 0.0 0.0 0.00 0.00 0.00 68 1016.7
20260906140002 28 65 0.0 0.0 0.00 0.00 0.00 69 1016.5
20260906135459 28 45 1.6 1.6 0.00 0.00 0.00 68 1016.6
20260906134955 28 97 0.0 1.6 0.00 0.00 0.00 70 1016.7
20260906134451 27 73 0.0 0.0 0.00 0.00 0.00 71 1016.7
20260906133951 27 73 0.0 0.0 0.00 0.00 0.00 72 1016.9
20260906133446 27 73 0.0 0.0 0.00 0.00 0.00 72 1016.5
20260906132942 27 73 0.0 0.0 0.00 0.00 0.00 74 1016.7
20260906132437 26 80 0.0 0.0 0.00 0.00 0.00 75 1016.5
20260906131932 26 90 0.0 0.0 0.00 0.00 0.00 76 1016.3
20260906131428 26 90 0.0 0.0 0.00 0.00 0.00 77 1016.4
20260906130924 26 90 0.0 0.0 0.00 0.00 0.00 77 1016.3
20260906130423 25 90 0.0 0.0 0.00 0.00 0.00 77 1016.1
20260906125923 25 96 0.0 0.0 0.00 0.00 0.00 78 1016.3
20260906125420 25 96 0.0 0.0 0.00 0.00 0.00 79 1016.0
20260906124920 25 96 0.0 0.0 0.00 0.00 0.00 79 1016.4
20260906124416 24 102 0.0 0.0 0.00 0.00 0.00 81 1016.2
20260906123910 24 106 0.0 0.0 0.00 0.00 0.00 82 1016.2
20260906123409 24 107 0.0 0.0 0.00 0.00 0.00 83 1016.2
20260906122904 23 107 0.0 0.0 0.00 0.00 0.00 83 1016.0
20260906122359 23 107 0.0 0.0 0.00 0.00 0.00 84 1015.9
20260906121856 23 115 0.0 0.0 0.00 0.00 0.00 85 1016.1
20260906121351 23 115 0.0 0.0 0.00 0.00 0.00 85 1016.0
20260906120847 23 115 0.0 0.0 0.00 0.00 0.00 85 1015.7
20260906120343 23 115 0.0 0.0 0.00 0.00 0.00 85 1015.8
20260906115839 23 115 0.0 0.0 0.00 0.00 0.00 85 1015.9
20260906115334 23 115 0.0 0.0 0.00 0.00 0.00 86 1016.0
20260906114833 23 115 0.0 0.0 0.00 0.00 0.00 86 1015.8
20260906114329 23 115 0.0 0.0 0.00 0.00 0.00 87 1015.7
20260906113824 23 115 0.0 0.0 0.00 0.00 0.00 87 1015.9
20260906113323 23 115 0.0 0.0 0.00 0.00 0.00 86 1015.9
20260906112818 23 115 0.0 0.0 0.00 0.00 0.00 86 1015.7
20260906112315 23 115 0.0 0.0 0.00 0.00 0.00 85 1015.8
20260906111814 23 115 0.0 0.0 0.00 0.00 0.00 86 1015.9
20260906111314 23 115 0.0 0.0 0.00 0.00 0.00 85 1015.6
20260906110809 23 115 0.0 0.0 0.00 0.00 0.00 85 1015.7
20260906110305 23 115 0.0 0.0 0.00 0.00 0.00 85 1015.5
20260906105804 23 115 0.0 0.0 0.00 0.00 0.00 86 1015.5
20260906105259 22 115 0.0 0.0 0.00 0.00 0.00 86 1015.5
20260906104755 22 115 0.0 0.0 0.00 0.00 0.00 87 1015.3
20260906104253 22 115 0.0 0.0 0.00 0.00 0.00 87 1015.6
20260906103752 22 115 0.0 0.0 0.00 0.00 0.00 87 1015.6
20260906103246 22 115 0.0 0.0 0.00 0.00 0.00 87 1015.6
20260906102742 22 115 0.0 0.0 0.00 0.00 0.00 87 1015.5
20260906102240 22 115 0.0 0.0 0.00 0.00 0.00 87 1015.4
20260906101736 22 115 0.0 0.0 0.00 0.00 0.00 88 1015.5
20260906101230 22 115 0.0 0.0 0.00 0.00 0.00 88 1015.4
20260906100726 22 115 0.0 0.0 0.00 0.00 0.00 88 1015.4
20260906100226 22 115 0.0 0.0 0.00 0.00 0.00 88 1015.3
20260906095721 22 115 0.0 0.0 0.00 0.00 0.00 88 1015.2
20260906095216 22 115 0.0 0.0 0.00 0.00 0.00 87 1015.3
20260906094714 22 115 0.0 0.0 0.00 0.00 0.00 87 1015.2
20260906094210 22 115 0.0 0.0 0.00 0.00 0.00 87 1015.2
20260906093707 23 115 0.0 0.0 0.00 0.00 0.00 87 1015.3
20260906093202 23 115 0.0 0.0 0.00 0.00 0.00 86 1015.3
20260906092657 23 115 0.0 0.0 0.00 0.00 0.00 85 1015.3
20260906092156 23 115 0.0 0.0 0.00 0.00 0.00 85 1015.2
20260906091653 23 115 0.0 0.0 0.00 0.00 0.00 84 1015.3
20260906091149 23 115 0.0 0.0 0.00 0.00 0.00 84 1015.0
20260906090645 23 115 0.0 0.0 0.00 0.00 0.00 83 1015.2
20260906090144 24 115 0.0 0.0 0.00 0.00 0.00 81 1014.9
20260906085643 24 115 0.0 0.0 0.00 0.00 0.00 81 1015.0
20260906085137 24 115 0.0 0.0 0.00 0.00 0.00 81 1014.9
20260906084632 24 115 0.0 0.0 0.00 0.00 0.00 80 1014.9
20260906084131 24 115 0.0 0.0 0.00 0.00 0.00 79 1014.8
20260906083626 25 115 0.0 0.0 0.00 0.00 0.00 78 1014.9
20260906083121 24 115 0.0 0.0 0.00 0.00 0.00 79 1014.8
20260906082616 25 115 0.0 0.0 0.00 0.00 0.00 79 1014.7
20260906082112 25 115 0.0 0.0 0.00 0.00 0.00 79 1015.1
20260906081608 25 115 0.0 0.0 0.00 0.00 0.00 78 1014.9
20260906081103 25 115 0.0 0.0 0.00 0.00 0.00 78 1014.9
20260906080559 25 115 0.0 0.0 0.00 0.00 0.00 78 1015.0
20260906080055 25 116 0.0 1.6 0.00 0.00 0.00 78 1015.0
20260906075549 24 115 0.0 0.0 0.00 0.00 0.00 79 1015.0
20260906075044 24 115 0.0 0.0 0.00 0.00 0.00 79 1015.0
20260906074539 25 115 0.0 0.0 0.00 0.00 0.00 78 1014.9
20260906074037 25 115 0.0 0.0 0.00 0.00 0.00 79 1014.9
20260906073532 25 115 0.0 0.0 0.00 0.00 0.00 78 1015.0
20260906073029 25 115 0.0 0.0 0.00 0.00 0.00 78 1015.0
20260906072523 25 115 0.0 0.0 0.00 0.00 0.00 78 1014.8
20260906072020 25 115 0.0 0.0 0.00 0.00 0.00 78 1015.1
20260906071515 25 116 0.0 0.0 0.00 0.00 0.00 78 1015.0
20260906071011 25 116 0.0 0.0 0.00 0.00 0.00 78 1014.8
20260906070507 25 116 0.0 0.0 0.00 0.00 0.00 78 1015.0
20260906070002 25 116 0.0 0.0 0.00 0.00 0.00 79 1014.9
20260906065502 25 116 0.0 0.0 0.00 0.00 0.00 78 1015.0
20260906064957 25 116 0.0 0.0 0.00 0.00 0.00 79 1014.8
20260906064453 25 116 0.0 0.0 0.00 0.00 0.00 79 1015.0
20260906063948 25 116 0.0 0.0 0.00 0.00 0.00 79 1015.0
20260906063444 25 116 0.0 0.0 0.00 0.00 0.00 79 1014.9
20260906062943 25 116 0.0 0.0 0.00 0.00 0.00 80 1015.0
20260906062439 25 116 0.0 0.0 0.00 0.00 0.00 80 1015.3
20260906061934 25 116 0.0 0.0 0.00 0.00 0.00 80 1015.3
20260906061429 25 116 0.0 0.0 0.00 0.00 0.00 80 1015.2
20260906060924 25 116 0.0 0.0 0.00 0.00 0.00 80 1015.3
20260906060421 25 116 0.0 0.0 0.00 0.00 0.00 81 1015.5
20260906055917 25 116 0.0 0.0 0.00 0.00 0.00 80 1015.7
20260906055413 25 116 0.0 0.0 0.00 0.00 0.00 80 1015.5
20260906054908 25 116 0.0 0.0 0.00 0.00 0.00 80 1015.4
20260906054403 25 116 0.0 0.0 0.00 0.00 0.00 81 1015.6
20260906053859 25 116 0.0 0.0 0.00 0.00 0.00 81 1015.4
20260906053354 25 116 0.0 0.0 0.00 0.00 0.00 80 1015.6
20260906052850 25 116 0.0 0.0 0.00 0.00 0.00 81 1015.6
20260906052346 25 116 0.0 0.0 0.00 0.00 0.00 81 1015.6
20260906051843 25 116 0.0 0.0 0.00 0.00 0.00 80 1015.4
20260906051342 25 116 0.0 0.0 0.00 0.00 0.00 80 1015.5
20260906050839 25 116 0.0 0.0 0.00 0.00 0.00 80 1015.6
20260906050333 25 116 0.0 0.0 0.00 0.00 0.00 80 1015.5
20260906045832 25 116 0.0 0.0 0.00 0.00 0.00 80 1015.7
20260906045326 25 116 0.0 0.0 0.00 0.00 0.00 80 1015.6
20260906044823 25 116 0.0 0.0 0.00 0.00 0.00 80 1015.7
20260906044317 25 116 0.0 0.0 0.00 0.00 0.00 80 1015.6
20260906043813 25 116 0.0 0.0 0.00 0.00 0.00 80 1015.4
20260906043308 25 116 0.0 0.0 0.00 0.00 0.00 80 1015.3
20260906042803 25 116 0.0 0.0 0.00 0.00 0.00 79 1015.5
20260906042306 25 116 0.0 0.0 0.00 0.00 0.00 79 1015.3
20260906041758 25 116 0.0 0.0 0.00 0.00 0.00 79 1015.2
20260906041252 25 116 0.0 0.0 0.00 0.00 0.00 79 1015.3
20260906040748 26 116 0.0 0.0 0.00 0.00 0.00 78 1015.2
20260906040243 26 116 0.0 0.0 0.00 0.00 0.00 78 1015.4
20260906035738 26 116 0.0 0.0 0.00 0.00 0.00 78 1015.4
20260906035234 26 116 0.0 0.0 0.00 0.00 0.00 77 1015.4
20260906034734 26 116 0.0 0.0 0.00 0.00 0.00 78 1015.3
20260906034229 26 116 0.0 0.0 0.00 0.00 0.00 77 1015.1
20260906033725 26 116 0.0 0.0 0.00 0.00 0.00 77 1015.1
20260906033224 26 116 0.0 0.0 0.00 0.00 0.00 78 1015.3
20260906032721 26 116 0.0 0.0 0.00 0.00 0.00 78 1015.1
20260906032221 25 116 0.0 0.0 0.00 0.00 0.00 78 1015.1
20260906031716 25 116 0.0 0.0 0.00 0.00 0.00 78 1015.1
20260906031212 26 116 0.0 0.0 0.00 0.00 0.00 79 1014.8
20260906030711 26 115 0.0 0.0 0.00 0.00 0.00 78 1014.8
20260906030206 26 115 0.0 0.0 0.00 0.00 0.00 78 1014.8
20260906025706 26 115 0.0 0.0 0.00 0.00 0.00 78 1014.9
20260906025200 26 115 0.0 0.0 0.00 0.00 0.00 78 1014.8
20260906024654 26 116 0.0 0.0 0.00 0.00 0.00 77 1014.9
20260906024153 26 115 0.0 0.0 0.00 0.00 0.00 77 1014.6
20260906023650 26 116 0.0 0.0 0.00 0.00 0.00 75 1014.7
20260906023150 26 116 0.0 0.0 0.00 0.00 0.00 74 1014.6
20260906022644 26 116 0.0 0.0 0.00 0.00 0.00 75 1014.5
20260906022140 26 116 0.0 0.0 0.00 0.00 0.00 74 1014.5
20260906021636 26 116 0.0 0.0 0.00 0.00 0.00 73 1014.3
20260906021135 26 116 0.0 0.0 0.00 0.00 0.00 72 1014.4
20260906020635 26 116 0.0 0.0 0.00 0.00 0.00 75 1014.2
20260906020130 26 116 0.0 0.0 0.00 0.00 0.00 75 1014.2
20260906015624 26 116 0.0 0.0 0.00 0.00 0.00 75 1014.1
20260906015122 26 116 0.0 0.0 0.00 0.00 0.00 73 1014.2
20260906014617 26 116 0.0 0.0 0.00 0.00 0.00 74 1013.7
20260906014114 26 116 0.0 0.0 0.00 0.00 0.00 73 1013.8
20260906013609 26 115 0.0 0.0 0.00 0.00 0.00 73 1014.0
20260906013104 27 116 0.0 0.0 0.00 0.00 0.00 72 1013.5
20260906012559 27 116 0.0 0.0 0.00 0.00 0.00 70 1013.8
20260906012058 27 116 0.0 0.0 0.00 0.00 0.00 70 1013.4
20260906011555 27 116 0.0 0.0 0.00 0.00 0.00 70 1013.7
20260906011049 27 116 0.0 0.0 0.00 0.00 0.00 69 1013.3
20260906010545 27 116 0.0 0.0 0.00 0.00 0.00 69 1013.4
20260906010041 27 116 0.0 0.0 0.00 0.00 0.00 69 1013.2
20260906005540 27 116 0.0 0.0 0.00 0.00 0.00 70 1013.2
20260906005039 28 116 0.0 0.0 0.00 0.00 0.00 71 1013.4
20260906004538 28 116 0.0 0.0 0.00 0.00 0.00 69 1013.3
20260906004033 28 116 0.0 0.0 0.00 0.00 0.00 68 1013.0
20260906003528 29 116 0.0 0.0 0.00 0.00 0.00 69 1013.5
20260906003025 30 116 0.0 0.0 0.00 0.00 0.00 69 1013.3
20260906002519 30 116 0.0 0.0 0.00 0.00 0.00 68 1013.4
20260906002014 31 116 0.0 0.0 0.00 0.00 0.00 64 1013.1
20260906001510 31 116 0.0 0.0 0.00 0.00 0.00 63 1013.6
20260906001004 32 116 0.0 0.0 0.00 0.00 0.00 62 1013.4
20260906000500 33 116 0.0 0.0 0.00 0.00 0.00 57 1013.5
20260906000000 33 116 0.0 0.0 0.00 0.00 0.00 57 1013.2
20260905235454 33 116 0.0 0.0 0.00 0.00 0.00 52 1013.5
20260905234949 34 116 0.0 0.0 0.00 0.00 0.00 49 1013.4
20260905234444 35 116 0.0 0.0 0.00 0.00 0.00 52 1013.3
20260905233938 35 115 0.0 0.0 0.00 0.00 0.00 45 1013.4
20260905233434 35 122 0.0 0.0 0.00 0.00 0.00 42 1013.6
20260905232933 36 127 0.0 0.0 0.00 0.00 0.00 46 1013.2
20260905232429 36 127 0.0 0.0 0.00 0.00 0.00 39 1013.3
20260905231924 37 117 1.6 1.6 0.00 0.00 0.00 38 1013.6
20260905231420 37 125 0.0 0.0 0.00 0.00 0.00 41 1013.6
20260905230917 37 137 0.0 1.6 0.00 0.00 0.00 37 1013.6
20260905230415 38 131 1.6 1.6 0.00 0.00 0.00 37 1013.6
20260905225914 38 102 0.0 0.0 0.00 0.00 0.00 37 1013.4
20260905225409 38 77 0.0 0.0 0.00 0.00 0.00 36 1013.5
20260905224904 38 107 0.0 0.0 0.00 0.00 0.00 36 1013.4
20260905224359 37 57 1.6 1.6 0.00 0.00 0.00 36 1013.5
20260905223854 36 116 0.0 0.0 0.00 0.00 0.00 44 1013.5
20260905223351 36 115 0.0 0.0 0.00 0.00 0.00 43 1013.5
20260905222846 37 116 1.6 1.6 0.00 0.00 0.00 41 1013.5
20260905222345 38 130 0.0 0.0 0.00 0.00 0.00 38 1013.3
20260905221841 40 130 0.0 0.0 0.00 0.00 0.00 35 1013.3
20260905221337 38 128 0.0 1.6 0.00 0.00 0.00 36 1013.4
20260905220833 37 110 0.0 0.0 0.00 0.00 0.00 38 1013.6
20260905220329 37 86 0.0 0.0 0.00 0.00 0.00 37 1013.6
20260905215828 38 129 0.0 1.6 0.00 0.00 0.00 36 1013.6
20260905215324 38 121 0.0 1.6 0.00 0.00 0.00 37 1013.5
20260905214821 40 127 0.0 0.0 0.00 0.00 0.00 33 1013.6
20260905214315 40 109 0.0 1.6 0.00 0.00 0.00 34 1013.8
20260905213810 39 197 4.8 8.0 0.00 0.00 0.00 34 1013.6
20260905213306 38 165 1.6 3.2 0.00 0.00 0.00 34 1013.7
20260905212801 40 160 6.4 8.0 0.00 0.00 0.00 32 1014.1
20260905212301 40 120 0.0 0.0 0.00 0.00 0.00 33 1013.8
20260905211755 40 147 1.6 1.6 0.00 0.00 0.00 33 1014.1
20260905211250 41 118 3.2 3.2 0.00 0.00 0.00 33 1014.1
20260905210747 40 94 0.0 0.0 0.00 0.00 0.00 33 1014.1
20260905210247 39 113 0.0 0.0 0.00 0.00 0.00 36 1014.1
20260905205745 40 81 1.6 3.2 0.00 0.00 0.00 34 1014.2
20260905205240 38 143 1.6 3.2 0.00 0.00 0.00 34 1014.3
20260905204740 37 117 0.0 0.0 0.00 0.00 0.00 37 1014.3
20260905204236 37 137 3.2 3.2 0.00 0.00 0.00 39 1014.4
20260905203735 38 134 3.2 3.2 0.00 0.00 0.00 37 1014.4
20260905203231 37 123 0.0 0.0 0.00 0.00 0.00 36 1014.6
20260905202726 38 142 1.6 1.6 0.00 0.00 0.00 35 1014.7
20260905202221 39 185 3.2 3.2 0.00 0.00 0.00 34 1014.7
20260905201716 39 82 1.6 1.6 0.00 0.00 0.00 34 1014.7
20260905201211 39 35 4.8 4.8 0.00 0.00 0.00 34 1014.8
20260905200706 38 108 0.0 1.6 0.00 0.00 0.00 34 1015.0
20260905200202 38 154 1.6 1.6 0.00 0.00 0.00 36 1014.8
20260905195700 37 171 1.6 3.2 0.00 0.00 0.00 37 1015.0
20260905195155 38 148 3.2 3.2 0.00 0.00 0.00 42 1015.1
20260905194650 38 114 1.6 1.6 0.00 0.00 0.00 38 1014.9
20260905194149 37 126 0.0 0.0 0.00 0.00 0.00 36 1015.0
20260905193644 36 135 0.0 1.6 0.00 0.00 0.00 44 1015.1
20260905193139 36 134 1.6 1.6 0.00 0.00 0.00 43 1015.2
20260905192634 36 79 0.0 0.0 0.00 0.00 0.00 41 1015.3
20260905192131 37 133 0.0 0.0 0.00 0.00 0.00 41 1015.2
20260905191630 36 131 0.0 1.6 0.00 0.00 0.00 40 1015.3
20260905191128 37 99 0.0 0.0 0.00 0.00 0.00 40 1015.2
20260905190627 37 107 1.6 1.6 0.00 0.00 0.00 40 1015.5
20260905190126 37 237 3.2 4.8 0.00 0.00 0.00 37 1015.4
20260905185625 38 193 4.8 4.8 0.00 0.00 0.00 38 1015.6
20260905185120 38 142 1.6 1.6 0.00 0.00 0.00 37 1015.7
20260905184615 38 106 1.6 1.6 0.00 0.00 0.00 37 1015.6
20260905184114 37 100 1.6 1.6 0.00 0.00 0.00 38 1015.7
20260905183613 37 274 4.8 4.8 0.00 0.00 0.00 38 1016.0
20260905183109 37 251 3.2 3.2 0.00 0.00 0.00 39 1016.0
20260905182608 37 170 4.8 4.8 0.00 0.00 0.00 39 1016.0
20260905182102 36 115 0.0 0.0 0.00 0.00 0.00 40 1016.0
20260905181602 36 115 0.0 0.0 0.00 0.00 0.00 47 1016.1
20260905181101 36 115 1.6 1.6 0.00 0.00 0.00 42 1016.4
20260905180556 36 128 0.0 1.6 0.00 0.00 0.00 42 1016.2
20260905180052 37 338 4.8 4.8 0.00 0.00 0.00 40 1016.4